BEIDOU-3 G1 (43683 NORAD) Tracking and Keplerian Element Data

This shows tracking and keplerian element data for the satellite.

Feedback or suggestion? Click here.




ElementValue
Catalog43683
NameBEIDOU-3 G1
Epoch Orbit28
Epoch Day320.19654581
Epoch Year2018
RAAN274.2484
Inclination3.06
Eccentricity0.0002096
Argument of Perigee321.3397
Mean Anonmoly35.0024
Mean Motion1.0027725
Decay Rate-2.42E-06
L11 43683U 18085A 18320.19654581 -.00000242 00000-0 00000+0 0 9997
L22 43683 3.0600 274.2484 0002096 321.3397 35.0024 1.00277250 289

Live tracking and technical data element details for BEIDOU-3 G1 (NORAD 43683). BEIDOU-3 G1 can be tracked NOW for your location showing map with azimuth and elevation plus other details from your city location.

Track the satellite on the map from your city or location and see movement details for azimuth, elevation, latitude, longitude, range, height, and movement on the map or in text.







IsCatalogInMostPopularTable: catalog: 43683, numindb: 5
Update: records affected: 1



GetName: 43683 BEIDOU-3 G1

Hit Count: updated at: Sat, 17 Nov 2018 02:34:03 GMT